Tracking 28518 objects as of 2-Mar-2024
HD Live streaming from Space Station
objects crossing your sky now

DELTA 1 R/B

Track DELTA 1 R/B now!
10-day predictions


NORAD ID: 3670
Int'l Code: 1969-009B
Perigee: 581.9 km
Apogee: 3,304.9 km
Inclination: 88.4 °
Period: 125.7 minutes
Semi major axis: 8314 km
RCS: 0.5955 m2 (medium)
Launch date: January 30, 1969
Source: United States (US)
Launch site: AIR FORCE WESTERN TEST RANGE (AFWTR)

Note: This is a ROCKET BODY
Your satellite tracking list
Your tracking list is empty




NASA's NSSDC Master Catalog

Two Line Element Set (TLE):
1 03670U 69009B   24061.34901611  .00001433  00000-0  98276-3 0  9994
2 03670  88.4483 200.1418 1637505 223.6304 122.3266 11.45140410283226
Source of the keplerian elements: AFSPC